This demonstration page uses our WeatherBlox Daily Observations layout. Learn more.

Left ArrowRight Arrow

Hourly Observations for October 25, 2020

Temp ( °F °C ) Dew Point ( °F °C ) Humidity (%) Winds ( mph kmh ) Pressure ( in mb ) Visibility ( mi km ) Precip ( " mm )
12:53 am 00:53 Clear 55 12.8 40 4.4 57 57 SSE 3 6 29.78 1009 10 16 0.00 0.00
1:53 am 01:53 Clear 57 13.9 42 5.6 58 58 SE 6 9 29.76 1008 10 16 0.00 0.00
2:53 am 02:53 Clear 53 11.7 41 5 64 64 E 3 6 29.77 1008 10 16 0.00 0.00
3:53 am 03:53 Clear 54 12.2 41 5 62 62 ESE 3 6 29.76 1008 10 16 0.00 0.00
4:53 am 04:53 Clear 52 11.1 40 4.4 64 64 ESE 5 7 29.76 1008 10 16 0.00 0.00
5:53 am 05:53 Clear 49 9.4 38 3.3 66 66 ENE 3 6 29.77 1008 10 16 0.00 0.00
6:53 am 06:53 Clear 50 10 40 4.4 68 68 SE 6 9 29.78 1008 10 16 0.00 0.00
7:53 am 07:53 Clear 49 9.4 38 3.3 66 66 Calm 29.80 1009 10 16 0.00 0.00
8:53 am 08:53 Sunny 55 12.8 43 6.1 64 64 SSE 5 7 29.80 1009 10 16 0.00 0.00
9:53 am 09:53 Sunny 62 16.7 44 6.7 52 52 SSE 6 9 29.80 1009 10 16 0.00 0.00
10:53 am 10:53 Sunny 71 21.7 44 6.7 38 38 S 5 7 29.79 1009 10 16 0.00 0.00
11:53 am 11:53 Sunny 77 25 43 6.1 30 30 S 6 9 29.77 1008 10 16 0.00 0.00
12:53 pm 12:53 Sunny 87 30.6 41 5 20 20 WSW 12 19 29.74 1007 10 16 0.00 0.00
1:53 pm 13:53 Sunny 89 31.7 39 3.9 17 17 W 12 19 29.69 1005 10 16 0.00 0.00
2:53 pm 14:53 Sunny 92 33.3 34 1.1 13 13 SW 10 17 29.64 1004 10 16 0.00 0.00
3:53 pm 15:53 Sunny 92 33.3 33 0.6 12 12 W 15 24 29.61 1003 10 16 0.00 0.00
4:53 pm 16:53 Sunny 91 32.8 29 -1.7 11 11 WSW 12 19 29.61 1003 10 16 0.00 0.00
5:53 pm 17:53 Sunny 90 32.2 30 -1.1 12 12 WSW 5 7 29.62 1003 10 16 0.00 0.00
6:19 pm 18:19 Sunny 78 25.6 44 6.7 30 30 ENE 20 31 29.59 1002 8 13 0.00 0.00
6:53 pm 18:53 Sunny 73 22.8 44 6.7 35 35 ENE 22 35 29.69 1006 9 14 0.00 0.00
7:53 pm 19:53 Clear 65 18.3 43 6.1 45 45 ENE 21 33 29.75 1007 10 16 0.00 0.00
8:53 pm 20:53 Clear 59 15 41 5 51 51 NE 20 31 29.78 1009 10 16 0.00 0.00
9:53 pm 21:53 Clear 53 11.7 40 4.4 61 61 NE 22 35 29.80 1009 10 16 0.00 0.00
10:53 pm 22:53 Clear 50 10 41 5 71 71 NE 22 35 29.83 1010 10 16 0.00 0.00
11:50 pm 23:50 Mostly Cloudy 48 9 43 6 82 82 NE 18 30 29.94 1014 10 16 0.00 0.00
11:53 pm 23:53 Mostly Cloudy 48 8.9 42 5.6 80 80 NNE 21 33 29.84 1011 10 16 0.00 0.00

Powered by AerisWeather